• în Republica Moldova
  • Lista ţărilor
  • Pe 7 zile
  • Temperatura apei
  • Hartă satelitară
  • Meteo pe hartă
  • Widget-uri
  • user-avatar
    Intrare

    Meteo pe oră la Mayrhofen

    Astăzi, 21 Iulie, Vineri

    Timp Temperatura Precipitaţii Vânt Presiune Umiditate
    00:00 +11°C° 0,4 mm 1 m/s 619 mmHg 93%
    01:00 +10°C° 0 mm 1 m/s 618 mmHg 91%
    02:00 +10°C° 0 mm 1 m/s 618 mmHg 90%
    03:00 +9°C° 0 mm 1 m/s 618 mmHg 90%
    04:00 +9°C° 0 mm 1 m/s 618 mmHg 89%
    05:00 +10°C° 0,1 mm 1 m/s 618 mmHg 85%
    06:00 +12°C° 0,1 mm 1 m/s 619 mmHg 81%
    07:00 +14°C° 0,1 mm 1 m/s 620 mmHg 77%
    08:00 +16°C° 0,1 mm 1 m/s 620 mmHg 68%
    09:00 +18°C° 0,1 mm 1 m/s 621 mmHg 60%
    10:00 +19°C° 0,1 mm 2 m/s 621 mmHg 51%
    11:00 +20°C° 0,3 mm 2 m/s 621 mmHg 50%
    12:00 +21°C° 0,3 mm 2 m/s 621 mmHg 48%
    13:00 +23°C° 0,3 mm 2 m/s 621 mmHg 47%
    14:00 +21°C° 0,6 mm 2 m/s 621 mmHg 49%
    15:00 +21°C° 0,6 mm 2 m/s 621 mmHg 50%
    16:00 +21°C° 0,6 mm 2 m/s 621 mmHg 52%
    17:00 +19°C° 1,5 mm 2 m/s 620 mmHg 62%
    18:00 +18°C° 1,5 mm 2 m/s 619 mmHg 71%
    19:00 +16°C° 1,5 mm 2 m/s 619 mmHg 81%
    20:00 +15°C° 1,1 mm 2 m/s 619 mmHg 83%
    21:00 +14°C° 1,1 mm 2 m/s 618 mmHg 85%
    22:00 +13°C° 1,1 mm 2 m/s 618 mmHg 87%
    23:00 +12°C° 0,1 mm 2 m/s 618 mmHg 87%

    Mâine, 22 Iulie, Sâmbătă

    Timp Temperatura Precipitaţii Vânt Presiune Umiditate
    00:00 +12°C° 0,1 mm 2 m/s 618 mmHg 87%
    01:00 +10°C° 0,1 mm 2 m/s 618 mmHg 87%
    02:00 +10°C° 0,3 mm 2 m/s 618 mmHg 88%
    03:00 +10°C° 0,3 mm 2 m/s 618 mmHg 88%
    04:00 +10°C° 0,3 mm 1 m/s 618 mmHg 88%
    05:00 +12°C° 0,1 mm 1 m/s 618 mmHg 84%
    06:00 +13°C° 0,1 mm 1 m/s 619 mmHg 81%
    07:00 +14°C° 0,1 mm 1 m/s 619 mmHg 77%
    08:00 +16°C° 0 mm 1 m/s 620 mmHg 69%
    09:00 +19°C° 0 mm 1 m/s 621 mmHg 61%
    10:00 +21°C° 0 mm 1 m/s 622 mmHg 52%
    11:00 +22°C° 0,2 mm 1 m/s 622 mmHg 52%
    12:00 +22°C° 0,2 mm 1 m/s 622 mmHg 51%
    13:00 +22°C° 0,2 mm 1 m/s 622 mmHg 50%
    14:00 +22°C° 0,9 mm 1 m/s 622 mmHg 56%
    15:00 +21°C° 0,9 mm 1 m/s 621 mmHg 62%
    16:00 +21°C° 0,9 mm 1 m/s 621 mmHg 68%
    17:00 +19°C° 1,6 mm 1 m/s 621 mmHg 74%
    18:00 +18°C° 1,6 mm 1 m/s 620 mmHg 81%
    19:00 +15°C° 1,6 mm 1 m/s 620 mmHg 87%
    20:00 +14°C° 1,4 mm 1 m/s 620 mmHg 90%
    21:00 +12°C° 1,4 mm 0 m/s 620 mmHg 93%
    22:00 +11°C° 1,4 mm 0 m/s 620 mmHg 95%
    23:00 +11°C° 0,7 mm 0 m/s 620 mmHg 96%

    Poimâine, 23 Iulie, Duminică

    Timp Temperatura Precipitaţii Vânt Presiune Umiditate
    00:00 +12°C° 0,7 mm 1 m/s 619 mmHg 96%
    01:00 +12°C° 0,7 mm 1 m/s 619 mmHg 96%
    02:00 +11°C° 0,4 mm 1 m/s 619 mmHg 96%
    03:00 +11°C° 0,4 mm 1 m/s 619 mmHg 95%
    04:00 +11°C° 0,4 mm 1 m/s 619 mmHg 95%
    05:00 +12°C° 0,1 mm 1 m/s 619 mmHg 91%
    06:00 +13°C° 0,1 mm 1 m/s 620 mmHg 87%
    07:00 +14°C° 0,1 mm 0 m/s 620 mmHg 84%
    08:00 +16°C° 0,2 mm 1 m/s 621 mmHg 77%
    09:00 +18°C° 0,2 mm 1 m/s 621 mmHg 71%
    10:00 +19°C° 0,2 mm 1 m/s 622 mmHg 65%
    11:00 +19°C° 0,5 mm 1 m/s 622 mmHg 68%
    12:00 +18°C° 0,5 mm 1 m/s 621 mmHg 71%
    13:00 +18°C° 0,5 mm 1 m/s 621 mmHg 74%
    14:00 +17°C° 0,7 mm 2 m/s 621 mmHg 78%
    15:00 +16°C° 0,7 mm 2 m/s 620 mmHg 81%
    16:00 +16°C° 0,7 mm 2 m/s 620 mmHg 84%
    17:00 +15°C° 1,2 mm 2 m/s 620 mmHg 88%
    18:00 +14°C° 1,2 mm 2 m/s 620 mmHg 91%
    19:00 +13°C° 1,2 mm 1 m/s 619 mmHg 95%
    20:00 +13°C° 1,4 mm 1 m/s 619 mmHg 96%
    21:00 +12°C° 1,4 mm 1 m/s 619 mmHg 97%
    22:00 +12°C° 1,4 mm 1 m/s 619 mmHg 97%
    23:00 +12°C° 0,5 mm 1 m/s 619 mmHg 97%

    24 Iulie, Luni

    Timp Temperatura Precipitaţii Vânt Presiune Umiditate
    00:00 +12°C° 0,5 mm 1 m/s 618 mmHg 98%
    01:00 +11°C° 0,5 mm 1 m/s 618 mmHg 98%
    02:00 +11°C° 0,5 mm 1 m/s 618 mmHg 98%
    03:00 +11°C° 0,5 mm 1 m/s 617 mmHg 98%
    04:00 +11°C° 0,5 mm 1 m/s 617 mmHg 98%
    05:00 +11°C° 0,7 mm 1 m/s 616 mmHg 97%
    06:00 +11°C° 0,7 mm 1 m/s 616 mmHg 96%
    07:00 +12°C° 0,7 mm 1 m/s 616 mmHg 95%
    08:00 +12°C° 1,2 mm 1 m/s 616 mmHg 91%
    09:00 +13°C° 1,2 mm 1 m/s 615 mmHg 87%
    10:00 +13°C° 1,2 mm 1 m/s 615 mmHg 83%
    11:00 +13°C° 3 mm 2 m/s 615 mmHg 86%
    12:00 +12°C° 3 mm 2 m/s 615 mmHg 89%
    13:00 +12°C° 3 mm 2 m/s 614 mmHg 91%
    14:00 +10°C° 3,6 mm 2 m/s 614 mmHg 93%
    15:00 +9°C° 3,6 mm 2 m/s 614 mmHg 95%
    16:00 +8°C° 3,6 mm 2 m/s 613 mmHg 96%
    17:00 +7°C° 0,9 mm 2 m/s 613 mmHg 96%
    18:00 +7°C° 0,9 mm 2 m/s 614 mmHg 95%
    19:00 +7°C° 0,9 mm 2 m/s 614 mmHg 95%
    20:00 +6°C° 0,1 mm 2 m/s 614 mmHg 95%
    21:00 +6°C° 0,1 mm 2 m/s 614 mmHg 95%
    22:00 +5°C° 0,1 mm 2 m/s 614 mmHg 96%
    23:00 +5°C° 0,2 mm 2 m/s 613 mmHg 96%

    25 Iulie, Marţi

    Timp Temperatura Precipitaţii Vânt Presiune Umiditate
    00:00 +5°C° 0,2 mm 2 m/s 613 mmHg 96%
    01:00 +4°C° 0,2 mm 2 m/s 613 mmHg 96%
    02:00 +4°C° 0,3 mm 2 m/s 613 mmHg 96%
    03:00 +4°C° 0,3 mm 2 m/s 613 mmHg 95%
    04:00 +4°C° 0,3 mm 2 m/s 613 mmHg 95%
    05:00 +5°C° 0,5 mm 2 m/s 613 mmHg 94%
    06:00 +6°C° 0,5 mm 1 m/s 613 mmHg 92%
    07:00 +7°C° 0,5 mm 1 m/s 613 mmHg 90%
    08:00 +8°C° 0,8 mm 1 m/s 613 mmHg 87%
    09:00 +8°C° 0,8 mm 1 m/s 614 mmHg 84%
    10:00 +9°C° 0,8 mm 1 m/s 614 mmHg 81%
    11:00 +10°C° 1 mm 1 m/s 614 mmHg 81%
    12:00 +9°C° 1 mm 2 m/s 614 mmHg 81%
    13:00 +9°C° 1 mm 2 m/s 614 mmHg 80%
    14:00 +9°C° 0,5 mm 2 m/s 614 mmHg 79%
    15:00 +10°C° 0,5 mm 2 m/s 614 mmHg 77%
    16:00 +10°C° 0,5 mm 2 m/s 614 mmHg 75%
    17:00 +9°C° 0,4 mm 2 m/s 614 mmHg 79%
    18:00 +8°C° 0,4 mm 2 m/s 614 mmHg 82%
    19:00 +8°C° 0,4 mm 2 m/s 614 mmHg 85%
    20:00 +7°C° 0,4 mm 2 m/s 614 mmHg 88%
    21:00 +6°C° 0,4 mm 2 m/s 614 mmHg 90%
    22:00 +6°C° 0,4 mm 2 m/s 614 mmHg 92%
    23:00 +5°C° 0,4 mm 2 m/s 614 mmHg 92%

    26 Iulie, Miercuri

    Timp Temperatura Precipitaţii Vânt Presiune Umiditate
    00:00 +5°C° 0,4 mm 2 m/s 614 mmHg 92%
    01:00 +5°C° 0,4 mm 2 m/s 614 mmHg 92%
    02:00 +5°C° 0,7 mm 2 m/s 614 mmHg 93%
    03:00 +5°C° 0,7 mm 2 m/s 614 mmHg 93%
    04:00 +5°C° 0,7 mm 2 m/s 614 mmHg 93%
    05:00 +5°C° 0,6 mm 2 m/s 614 mmHg 91%
    06:00 +6°C° 0,6 mm 2 m/s 614 mmHg 90%
    07:00 +7°C° 0,6 mm 2 m/s 615 mmHg 89%
    08:00 +8°C° 0,1 mm 2 m/s 616 mmHg 82%
    09:00 +10°C° 0,1 mm 2 m/s 616 mmHg 74%
    10:00 +13°C° 0,1 mm 2 m/s 617 mmHg 67%
    11:00 +14°C° 0,1 mm 2 m/s 617 mmHg 62%
    12:00 +15°C° 0,1 mm 2 m/s 618 mmHg 56%
    13:00 +17°C° 0,1 mm 2 m/s 618 mmHg 50%
    14:00 +17°C° 0 mm 2 m/s 618 mmHg 49%
    15:00 +17°C° 0 mm 2 m/s 618 mmHg 48%
    16:00 +17°C° 0 mm 3 m/s 618 mmHg 47%
    17:00 +15°C° 0 mm 2 m/s 618 mmHg 55%
    18:00 +14°C° 0 mm 2 m/s 618 mmHg 63%
    19:00 +13°C° 0 mm 1 m/s 617 mmHg 71%
    20:00 +11°C° 0 mm 1 m/s 617 mmHg 77%
    21:00 +9°C° 0 mm 1 m/s 617 mmHg 83%
    22:00 +7°C° 0 mm 1 m/s 616 mmHg 89%
    23:00 +6°C° 0 mm 1 m/s 616 mmHg 88%
    Arată mai mult